Home > Weather > Akron > Past weeks

Flag for U.S.A. Weather for the Past 2 Weeks in Akron, Ohio, U.S.A.

Now
12 °F

Scattered clouds.


Feels Like: 3 °F
Forecast: 0 / 20 °F
Wind: 6 mph from Southwest

Location: Akron Fulton International Airport

Current Time: Feb 14, 2016 at 12:11:07 PM

Latest Report: Feb 14, 2016 at 10:54 AM


Visibility: 10 mi

Pressure: 30.52 "Hg

Humidity: 67%

Dew point: 3 °F

Location of AkronLocation

Historic Weather in Akron — Graph

°F

Akron Temperature Yesterday

Maximum temperature yesterday: 16 °F (at 12:01 AM)
Minimum temperature yesterday: 3 °F (at 10:54 PM)
Average temperature yesterday: 10 °F

High & Low Weather Summary for the Past Weeks

 TemperatureHumidityPressure
High63 °F (Feb 3, 12:54 PM)90% (Feb 3, 4:54 AM)30.52 "Hg (Feb 3, 4:54 AM)
Low-8 °F (Feb 14, 7:54 AM)35% (Feb 3, 3:54 PM)29.53 "Hg (Feb 8, 2:04 PM)
Average32 °F67%30.00 "Hg
* Reported Jan 30 10:54 AM — Feb 14 10:54 AM, Akron, Weather by CustomWeather, © 2016

Note: Actual official high and low records may vary slightly from our data, if they occured in-between our weather recording intervals... More about our weather records

Advertising

Akron Weather History for the Previous 24 Hours

 ConditionsComfort  
Time TempWeatherWind HumidityBarometerVisibility
10:54 AM
Sun, Feb 14
12 °FScattered clouds.6 mph67%30.52 "Hg10 mi
9:54 AM14 °FSunny.No wind77%30.52 "Hg7 mi
8:54 AM5 °FSunny.No wind72%30.51 "Hg7 mi
7:54 AM-8 °FSunny.No wind67%30.51 "Hg7 mi
6:54 AM-3 °FClear.No wind68%30.51 "Hg9 mi
5:54 AM-7 °FClear.No wind75%30.51 "Hg8 mi
4:54 AM-7 °FClear.No wind79%30.52 "Hg6 mi
3:54 AM-2 °FMostly cloudy.No wind78%30.50 "Hg7 mi
2:54 AM-5 °FPassing clouds.No wind83%30.50 "Hg7 mi
1:54 AM-4 °FClear.No wind79%30.49 "Hg7 mi
12:54 AM4 °FPassing clouds.No wind80%30.48 "Hg9 mi
11:54 PM
Sat, Feb 13
3 °FOvercast.No wind79%30.48 "Hg10 mi
10:54 PM3 °FPassing clouds.5 mph87%30.48 "Hg10 mi
10:01 PM6 °FPassing clouds.5 mph83%30.42 "Hg8 mi
8:54 PM8 °FIce fog.6 mph83%30.49 "Hg6 mi
7:54 PM11 °FMostly cloudy.8 mph73%30.48 "Hg7 mi
6:54 PM11 °FLight snow. Overcast.5 mph73%30.48 "Hg4 mi
5:54 PM11 °FSnow. Ice fog.8 mph73%30.47 "Hg1 mi
4:54 PM12 °FPartly sunny.13 mph58%30.46 "Hg9 mi
3:54 PM12 °FPartly sunny.14 mph61%30.45 "Hg9 mi
2:54 PM12 °FMostly cloudy.10 mph56%30.44 "Hg4 mi
2:02 PM11 °FLight snow. Mostly cloudy.14 mph64%30.38 "Hg2 mi
1:58 PM12 °FLight snow. Mostly cloudy.13 mph61%30.38 "Hg3 mi
12:54 PM11 °FMostly cloudy.20 mph51%30.45 "Hg6 mi
12:00 PM11 °FLight snow. Mostly cloudy.14 mph64%30.39 "Hg2 mi
Weather by CustomWeather, © 2016

See weather overviewHow to use our weather pages